Regional Weather Roundup
Issued by NWS

Home | Current Version | Previous Version | Graphics & Text | Print | Product List | Glossary On
Versions: 1 2 3 4 5 6 7 8 9 10 11 12 13 14 15 16 17 18 19 20 21 22 23 24 25 26 27 28 29 30 31 32 33 34 35 36 37 38 39 40 41 42 43 44 45 46 47 48 49 50
000
ASUS45 KTFX 300404
RWRMT
MONTANA HOURLY WEATHER ROUNDUP
NATIONAL WEATHER SERVICE GREAT FALLS MT
1004 PM MDT TUE JUL 29 2014

NOTE: "FAIR" INDICATES FEW OR NO CLOUDS BELOW 12000 FEET WITH NO
SIGNIFICANT WEATHER AND/OR OBSTRUCTIONS TO VISIBILITY.

* THESE STATIONS ARE NOT UNDER NWS QUALITY CONTROL. THEY DO NOT
   REPORT WEATHER SUCH AS PRECIPITATION OR FOG.

MTZ001>007-043-300500-
WEST OF THE DIVIDE
CITY           SKY/WX    TMP DP  RH WIND       PRES   REMARKS
KALISPELL      PTCLDY    72  50  46 N5        30.07R
MISSOULA       PTCLDY    81  32  17 SW5       30.09R
BUTTE          MOCLDY    70  45  41 SW10      30.28R
MULLAN PASS    PTCLDY    72  36  27 NW6       30.29R
* LINCOLN      N/A       75  45  34 NE4G10     N/A
* LOOKOUT PASS N/A       72  45  38 N2         N/A
* POLSON       N/A       73  44  35 NE1        N/A
* RONAN APT    PTCLDY    77  48  36 N/A        N/A
* SEELEY LAKE  N/A       77  45  32 SE1G7      N/A
* THOMP F APT  PTCLDY    59  48  67 N9G23      N/A
* YAAK HILL    N/A       76  48  37 E1         N/A
$$

MTZ008-052>055-300500-
SOUTHWEST MONTANA
CITY           SKY/WX    TMP DP  RH WIND       PRES   REMARKS
BOZEMAN        MOCLDY    72  46  40 SW7       30.21R
DILLON         MOCLDY    66  46  49 SE10      30.24R
W YELLOWSTONE  CLOUDY    54  52  93 S3        30.38R
* THREE FORKS  MOCLDY    73  54  51 N/A        N/A
* BOULDER HILL N/A       68  40  36 SW4        N/A
* MONIDA PASS  N/A       57  48  72 S9         N/A
* RAYNOLDS PAS N/A       54  26  34 E4         N/A
* WHITEHALL    N/A       77  42  29 E5G20      N/A
* WISE RIVER   N/A       73  41  32 E13G20     N/A
$$

MTZ009>010-012-014-046-048-049-054-300500-
EAST SLOPES AND CENTRAL MONTANA
CITY           SKY/WX    TMP DP  RH WIND       PRES   REMARKS
CUT BANK       CLEAR     77  41  28 SE5       30.17R
GREAT FALLS    PTCLDY    75  43  32 SE6       30.15R
HELENA         PTCLDY    73  48  41 NW3       30.16R
MALMSTROM AFB  PTCLDY    72  43  35 SE7       30.16R
* CONRAD       PTCLDY    72  52  49 N/A        N/A
* DEARBORN     N/A       76  46  35 N/A        N/A
* EAST GLACIER N/A       66  54  65 W4         N/A
* MONARCH      N/A       63  39  41 SE4        N/A
* SAINT MARY   N/A       64  48  56 S3         N/A
* SWEET GRASS  N/A       77  39  26 SE8        N/A
$$

MTZ011-013-016-021-035-040-045-047-050-051-300500-
NORTH CENTRAL MONTANA
CITY           SKY/WX    TMP DP  RH WIND       PRES   REMARKS
HAVRE          CLEAR     77  45  32 SE9       30.12R
LEWISTOWN      PTCLDY    70  43  38 SE8       30.22R
* CHESTER      N/A       81  42  25 E8G15      N/A
* DENTON       N/A       72  41  33 E8         N/A
* GEYSER       N/A       68  45  44 SE11       N/A
* JUDITH GAP   N/A       72  41  33 E10        N/A
* LOMA         N/A       79  40  25 NE8        N/A
$$

MTZ017>020-022>027-061-062-300500-
NORTHEAST MONTANA
CITY           SKY/WX    TMP DP  RH WIND       PRES   REMARKS
GLASGOW        CLEAR     70  48  46 E8        30.16R
GLENDIVE       CLEAR     70  48  46 NE8       30.19S
JORDAN         CLEAR     73  41  32 E8        30.17R
SIDNEY         CLEAR     68  52  57 N6        30.18R
WOLF POINT     CLEAR     70  52  53 E3        30.17R
* BEAVER HILL  N/A       67  49  53 NE8        N/A
* CIRCLE       N/A       73  51  46 NE2        N/A
* LINDSAY DVD  N/A       67  50  55 NE9        N/A
$$

MTZ028>042-056>058-300500-
SOUTHCENTRAL AND SOUTHEAST MONTANA
CITY           SKY/WX    TMP DP  RH WIND       PRES   REMARKS
BAKER          CLEAR     63  46  54 CALM      30.20R
BILLINGS       PTCLDY    79  46  31 SE6       30.20R
LIVINGSTON     PTCLDY    72  43  35 E6        30.22R
MILES CITY     PTCLDY    73  45  37 NE9       30.17R
* LAUREL APT   PTCLDY    75  52  45 N/A        N/A
* ROUNDUP APT  CLEAR     77  37  24 N/A        N/A
* ALZADA       N/A       64  52  65 SE2        N/A
* HYSHAM       N/A       73  42  33 E4         N/A
* LAME DEER    N/A       71  41  34 NE8        N/A
* REED POINT   N/A       77  51  40 SE9G14     N/A
* ROSCOE HILL  N/A       67  47  49 E8         N/A
$$

REGIONAL REPORTS...DAKOTAS
CITY           SKY/WX    TMP DP  RH WIND       PRES   REMARKS
WILLISTON      CLEAR     70  57  64 NE8       30.17R
DICKINSON      CLEAR     61  55  81 NE6       30.17R
CROSBY         N/A       59  59 100 CALM      30.19R
TIOGA          CLEAR     57  57 100 CALM      30.21R
WATFORD CITY   CLEAR     66  59  78 E7        30.15S
BISMARCK       CLEAR     66  57  73 E7        30.16R
GRAND FORKS    CLEAR     61  55  81 W3        30.10R
FARGO          CLEAR     63  55  75 CALM      30.11R
BUFFALO SD     PTCLDY    70  52  53 W6        30.12R
RAPID CITY     PTCLDY    63  55  75 SW6       30.22R
$$

REGIONAL REPORTS...WYOMING/IDAHO/WASHINGTON
CITY           SKY/WX    TMP DP  RH WIND       PRES   REMARKS
GILLETTE       MOCLDY    61  55  81 SW7       30.26R
SHERIDAN       MOCLDY    63  52  68 CALM      30.23R
YELLOWSTONE LA PTCLDY    48  46  93 NW3       30.46R
SALMON         CLOUDY    73  46  38 N6        30.16R
MULLAN PASS    PTCLDY    72  36  27 NW6       30.29S
SAND POINT     CLEAR     68  52  57 CALM      30.00R
SPOKANE        FAIR      91  37  15 S3        30.00R

$$



USA.gov is the U.S. government's official web portal to all federal, state and local government web resources and services.